Weather History for K20U - March, 2013

Change the Weather History Date:

Sunday, March 3, 2013

  Actual Average (KGDV) Record (KGDV)
Temperature  
Mean Temperature 40 °F -  
Max Temperature 48 °F 27 °F 60 °F (2005)
Min Temperature 32 °F 10 °F -14 °F (2002)
Degree Days  
Heating Degree Days 25    
Moisture  
Dew Point 34 °F    
Average Humidity 85    
Maximum Humidity 100    
Minimum Humidity 61    
Precipitation  
Precipitation 8.43 in - - ()
Sea Level Pressure  
Sea Level Pressure 29.64 in    
Wind  
Wind Speed 8 mph (SW)    
Max Wind Speed 23 mph    
Max Gust Speed 30 mph    
Visibility 8 miles    
Events Rain , Snow    
Averages and records for this station are not official NWS values.
T = Trace of Precipitation, MM = Missing Value Source: NWS Daily Summary

Daily Weather History Graph

Daily Weather History Graph

Search for Another Location

Airport or City:

Trip Planner

Search our weather history database for the weather conditions in past years. The results will help you decide how hot, cold, wet, or windy it might be!

Date:

Astronomy

Mar. 03, 2013 Rise Set
Actual Time 6:31 AM MST 5:44 PM MST
Civil Twilight 6:01 AM MST 6:15 PM MST
Nautical Twilight 5:25 AM MST 6:50 PM MST
Astronomical Twilight 4:50 AM MST 7:25 PM MST
Moon No Moon Rise 9:23 AM MST (3/3)
Length of Visible Light 12h 14m
Length of Day
11h 13m
Waning Gibbous, 63% of the Moon is Illuminated
Mar 3
Waning Gibbous
Mar 4
Last Quarter
Mar 11
New
Mar 19
First Quarter
Mar 27
Full

Hourly Weather History & Observations

Time (MST) Temp. Windchill Dew Point Humidity Pressure Visibility Wind Dir Wind Speed Gust Speed Precip Events Conditions
12:15 AM 33.8 °F 28.6 °F 32.0 °F 93% 29.83 in 10.0 mi SSE 5.8 mph - N/A   Scattered Clouds
12:35 AM 33.8 °F 30.8 °F 32.0 °F 93% 29.82 in 10.0 mi South 3.5 mph - N/A   Partly Cloudy
12:55 AM 33.8 °F 30.8 °F 32.0 °F 93% 29.81 in 10.0 mi SSE 3.5 mph - N/A   Mostly Cloudy
1:15 AM 33.8 °F 30.8 °F 32.0 °F 93% 29.80 in 10.0 mi SSE 3.5 mph - N/A   Overcast
1:35 AM 32.0 °F - 32.0 °F 100% 29.79 in 10.0 mi Calm Calm - N/A   Overcast
1:55 AM 33.8 °F 27.7 °F 32.0 °F 93% 29.78 in 10.0 mi SSE 6.9 mph - N/A   Mostly Cloudy
2:15 AM 35.6 °F 30.7 °F 32.0 °F 87% 29.77 in 10.0 mi SSE 5.8 mph - N/A   Overcast
2:35 AM 35.6 °F 32.8 °F 32.0 °F 87% 29.76 in 10.0 mi South 3.5 mph - N/A   Overcast
2:55 AM 33.8 °F - 32.0 °F 93% 29.75 in 10.0 mi Calm Calm - N/A   Overcast
3:15 AM 35.6 °F 31.7 °F 32.0 °F 87% 29.74 in 10.0 mi South 4.6 mph - N/A   Overcast
3:35 AM 35.6 °F 29.2 °F 32.0 °F 87% 29.73 in 10.0 mi South 8.1 mph - N/A   Overcast
3:55 AM 33.8 °F 29.6 °F 32.0 °F 93% 29.72 in 10.0 mi South 4.6 mph - N/A   Overcast
4:15 AM 35.6 °F 30.7 °F 32.0 °F 87% 29.71 in 10.0 mi South 5.8 mph - N/A   Overcast
4:35 AM 35.6 °F 32.8 °F 32.0 °F 87% 29.71 in 10.0 mi SSE 3.5 mph - N/A   Overcast
5:15 AM 35.6 °F 31.7 °F 32.0 °F 87% 29.70 in 10.0 mi South 4.6 mph - N/A   Scattered Clouds
5:35 AM 33.8 °F 27.0 °F 32.0 °F 93% 29.69 in 10.0 mi SSW 8.1 mph - N/A   Mostly Cloudy
5:55 AM 33.8 °F 28.6 °F 32.0 °F 93% 29.69 in 10.0 mi South 5.8 mph - N/A   Overcast
6:15 AM 35.6 °F 30.7 °F 32.0 °F 87% 29.69 in 10.0 mi South 5.8 mph - N/A   Overcast
6:35 AM 35.6 °F 32.8 °F 32.0 °F 87% 29.68 in 10.0 mi South 3.5 mph - N/A   Overcast
6:55 AM 37.4 °F 32.1 °F 32.0 °F 81% 29.68 in 10.0 mi SW 6.9 mph - N/A   Overcast
7:15 AM 39.2 °F 35.0 °F 32.0 °F 75% 29.67 in 10.0 mi WSW 5.8 mph - N/A   Overcast
7:35 AM 39.2 °F 34.2 °F 32.0 °F 75% 29.67 in 10.0 mi WSW 6.9 mph - N/A   Overcast
7:55 AM 39.2 °F 33.6 °F 32.0 °F 75% 29.66 in 10.0 mi WSW 8.1 mph - N/A   Overcast
8:15 AM 42.8 °F 35.8 °F 32.0 °F 66% 29.66 in 10.0 mi WSW 13.8 mph 17.3 mph N/A   Overcast
8:35 AM 42.8 °F 36.6 °F 32.0 °F 66% 29.66 in 10.0 mi WSW 11.5 mph - N/A   Mostly Cloudy
8:55 AM 44.6 °F 38.8 °F 32.0 °F 61% 29.65 in 10.0 mi WSW 11.5 mph - N/A   Mostly Cloudy
9:15 AM 44.6 °F 39.2 °F 33.8 °F 66% 29.65 in 10.0 mi WSW 10.4 mph - N/A   Overcast
9:35 AM 44.6 °F 38.8 °F 33.8 °F 66% 29.65 in 10.0 mi WSW 11.5 mph - N/A   Overcast
9:55 AM 44.6 °F 38.8 °F 35.6 °F 71% 29.64 in 10.0 mi West 11.5 mph - N/A   Scattered Clouds
10:15 AM 46.4 °F 40.7 °F 35.6 °F 66% 29.64 in 10.0 mi West 12.7 mph - N/A   Partly Cloudy
10:35 AM 46.4 °F 41.1 °F 35.6 °F 66% 29.63 in 10.0 mi West 11.5 mph - N/A   Partly Cloudy
10:55 AM 46.4 °F 41.1 °F 37.4 °F 71% 29.63 in 10.0 mi West 11.5 mph - N/A   Scattered Clouds
11:15 AM 46.4 °F 41.9 °F 37.4 °F 71% 29.63 in 9.0 mi West 9.2 mph - N/A Rain Light Rain
11:35 AM 46.4 °F 41.5 °F 39.2 °F 76% 29.62 in 10.0 mi WNW 10.4 mph - N/A   Clear
11:55 AM 48.2 °F - 39.2 °F 71% 29.61 in 10.0 mi West 6.9 mph - N/A   Scattered Clouds
12:15 PM 46.4 °F 42.9 °F 39.2 °F 76% 29.60 in 10.0 mi SW 6.9 mph - N/A   Scattered Clouds
12:35 PM 46.4 °F 41.9 °F 39.2 °F 76% 29.59 in 10.0 mi SW 9.2 mph - N/A   Clear
12:55 PM 46.4 °F 41.9 °F 39.2 °F 76% 29.58 in 10.0 mi SSW 9.2 mph - N/A   Clear
1:15 PM 46.4 °F 41.1 °F 39.2 °F 76% 29.56 in 10.0 mi SW 11.5 mph - N/A   Partly Cloudy
1:35 PM 46.4 °F 41.9 °F 39.2 °F 76% 29.56 in 10.0 mi SW 9.2 mph - N/A   Clear
1:55 PM 48.2 °F - 39.2 °F 71% 29.54 in 10.0 mi SW 10.4 mph - N/A   Partly Cloudy
2:15 PM 48.2 °F - 39.2 °F 71% 29.54 in 10.0 mi SW 10.4 mph - N/A   Partly Cloudy
2:35 PM 48.2 °F - 39.2 °F 71% 29.53 in 10.0 mi SW 10.4 mph - N/A   Clear
2:55 PM 48.2 °F - 39.2 °F 71% 29.53 in 10.0 mi SW 10.4 mph - N/A   Clear
3:15 PM 48.2 °F - 37.4 °F 66% 29.53 in 10.0 mi WSW 10.4 mph - N/A   Scattered Clouds
3:35 PM 46.4 °F 42.9 °F 39.2 °F 76% 29.53 in 10.0 mi SSW 6.9 mph - N/A   Scattered Clouds
3:55 PM 46.4 °F 41.9 °F 39.2 °F 76% 29.53 in 10.0 mi SW 9.2 mph - N/A   Partly Cloudy
4:15 PM 48.2 °F - 39.2 °F 71% 29.52 in 10.0 mi South 5.8 mph - N/A   Mostly Cloudy
4:35 PM 46.4 °F 43.5 °F 39.2 °F 76% 29.51 in 10.0 mi South 5.8 mph - N/A   Overcast
4:55 PM 44.6 °F 40.7 °F 39.2 °F 81% 29.51 in 10.0 mi South 6.9 mph - N/A   Overcast
5:35 PM 42.8 °F 38.0 °F 37.4 °F 81% 29.51 in 10.0 mi South 8.1 mph - N/A   Overcast
5:55 PM 41.0 °F 34.3 °F 39.2 °F 93% 29.53 in 6.0 mi WNW 11.5 mph 20.7 mph N/A Rain Light Rain
6:15 PM 39.2 °F 31.2 °F 39.2 °F 100% 29.53 in 10.0 mi NW 13.8 mph 18.4 mph N/A   Overcast
6:35 PM 37.4 °F 26.4 °F 37.4 °F 100% 29.54 in 5.0 mi NW 23.0 mph 29.9 mph N/A Rain Light Rain
6:55 PM 35.6 °F 24.5 °F 35.6 °F 100% 29.55 in 7.0 mi NNW 20.7 mph 28.8 mph N/A Rain Light Rain
7:15 PM 32.0 °F 20.1 °F 32.0 °F 100% 29.57 in 6.0 mi NW 19.6 mph 29.9 mph N/A Snow Light Snow
7:35 PM 32.0 °F 20.5 °F 32.0 °F 100% 29.58 in 1.5 mi NW 18.4 mph 23.0 mph 0.23 in Snow Light Snow
7:55 PM 32.0 °F 20.5 °F 32.0 °F 100% 29.61 in 1.0 mi WNW 18.4 mph 26.5 mph 0.55 in Snow Light Snow
8:15 PM 32.0 °F - 32.0 °F 100% 29.61 in 0.8 mi North - - 0.55 in Snow Light Snow
8:35 PM 32.0 °F - 32.0 °F 100% 29.62 in 0.8 mi North - - 1.78 in Snow Light Snow
8:55 PM 32.0 °F 20.1 °F 32.0 °F 100% 29.63 in 0.8 mi West 19.6 mph 24.2 mph 3.17 in Snow Light Snow
9:15 PM 32.0 °F 19.5 °F 32.0 °F 100% 29.64 in 0.8 mi West 21.9 mph 25.3 mph 1.00 in Snow Light Snow
9:35 PM 32.0 °F - 32.0 °F 100% 29.64 in 0.8 mi North - - 2.64 in Snow Light Snow
9:55 PM 32.0 °F 19.8 °F 32.0 °F 100% 29.64 in 0.8 mi West 20.7 mph 25.3 mph 3.71 in Snow Light Snow
10:15 PM 32.0 °F 20.5 °F 32.0 °F 100% 29.63 in 1.0 mi West 18.4 mph 25.3 mph 0.37 in Snow Light Snow
10:35 PM 32.0 °F 19.5 °F 32.0 °F 100% 29.63 in 1.2 mi West 21.9 mph 27.6 mph 0.84 in Snow Light Snow
10:55 PM 32.0 °F 19.2 °F 32.0 °F 100% 29.64 in 2.0 mi West 23.0 mph - 0.93 in Snow Light Snow
11:15 PM 32.0 °F 19.2 °F 32.0 °F 100% 29.63 in 2.5 mi West 23.0 mph - 0.04 in Snow Light Snow
11:35 PM 32.0 °F 20.5 °F 32.0 °F 100% 29.64 in 6.0 mi WNW 18.4 mph 24.2 mph 0.06 in Snow Light Snow
11:55 PM 32.0 °F 21.2 °F 32.0 °F 100% 29.64 in 5.0 mi West 16.1 mph - 0.07 in Snow Light Snow